Time,TemperatureF,DewpointF,PressureIn,WindDirection,WindDirectionDegrees,WindSpeedMPH,WindSpeedGustMPH,Humidity,HourlyPrecipIn,Conditions,Clouds,dailyrainin,SoftwareType,DateUTC
2013-07-02 00:01:00,67.9,58.6,30.17,NNE,21,0.0,0.0,72,0.00,,,0.00,vanprod-2.3,2013-07-02 05:01:00,
2013-07-02 00:06:00,67.6,58.3,30.17,NNE,21,0.0,0.0,72,0.00,,,0.00,vanprod-2.3,2013-07-02 05:06:00,
2013-07-02 00:11:00,67.4,58.5,30.17,NNE,21,0.0,0.0,73,0.00,,,0.00,vanprod-2.3,2013-07-02 05:11:00,
2013-07-02 00:16:00,67.3,58.0,30.17,NNE,21,0.0,0.0,72,0.00,,,0.00,vanprod-2.3,2013-07-02 05:16:00,
2013-07-02 00:21:00,67.3,58.0,30.17,NNE,21,0.0,0.0,72,0.00,,,0.00,vanprod-2.3,2013-07-02 05:21:00,
2013-07-02 00:26:00,67.1,58.2,30.17,NNE,21,0.0,0.0,73,0.00,,,0.00,vanprod-2.3,2013-07-02 05:26:00,
2013-07-02 00:31:00,66.9,58.0,30.17,NNE,21,0.0,0.0,73,0.00,,,0.00,vanprod-2.3,2013-07-02 05:31:00,
2013-07-02 00:36:00,66.8,58.3,30.17,NNE,21,0.0,0.0,74,0.00,,,0.00,vanprod-2.3,2013-07-02 05:36:00,
2013-07-02 00:41:00,66.8,58.3,30.18,NNE,21,0.0,0.0,74,0.00,,,0.00,vanprod-2.3,2013-07-02 05:41:00,
2013-07-02 00:46:00,66.6,58.4,30.18,NNE,21,0.0,0.0,75,0.00,,,0.00,vanprod-2.3,2013-07-02 05:46:00,
2013-07-02 00:51:00,66.4,58.2,30.18,NNE,21,0.0,0.0,75,0.00,,,0.00,vanprod-2.3,2013-07-02 05:51:00,
2013-07-02 00:56:00,66.3,58.5,30.17,NNE,21,0.0,0.0,76,0.00,,,0.00,vanprod-2.3,2013-07-02 05:56:00,
2013-07-02 01:01:00,66.1,58.3,30.17,NNE,21,0.0,0.0,76,0.00,,,0.00,vanprod-2.3,2013-07-02 06:01:00,
2013-07-02 01:06:00,65.9,58.1,30.17,NNE,21,0.0,0.0,76,0.00,,,0.00,vanprod-2.3,2013-07-02 06:06:00,
2013-07-02 01:11:00,65.8,58.0,30.17,NNE,21,0.0,0.0,76,0.00,,,0.00,vanprod-2.3,2013-07-02 06:11:00,
2013-07-02 01:16:00,65.6,58.2,30.17,NNE,21,0.0,0.0,77,0.00,,,0.00,vanprod-2.3,2013-07-02 06:16:00,
2013-07-02 01:21:00,65.5,58.5,30.17,NNE,21,0.0,0.0,78,0.00,,,0.00,vanprod-2.3,2013-07-02 06:21:00,
2013-07-02 01:26:00,65.3,58.3,30.17,NNE,21,0.0,0.0,78,0.00,,,0.00,vanprod-2.3,2013-07-02 06:26:00,
2013-07-02 01:31:00,65.1,58.4,30.17,NNE,21,0.0,0.0,79,0.00,,,0.00,vanprod-2.3,2013-07-02 06:31:00,
2013-07-02 01:36:00,65.0,58.0,30.17,NNE,21,0.0,0.0,78,0.00,,,0.00,vanprod-2.3,2013-07-02 06:36:00,
2013-07-02 01:41:00,64.8,57.8,30.17,NNE,21,0.0,0.0,78,0.00,,,0.00,vanprod-2.3,2013-07-02 06:41:00,
2013-07-02 01:46:00,64.8,58.1,30.17,NNE,21,0.0,0.0,79,0.00,,,0.00,vanprod-2.3,2013-07-02 06:46:00,
2013-07-02 01:51:00,64.7,58.0,30.17,NNE,21,0.0,0.0,79,0.00,,,0.00,vanprod-2.3,2013-07-02 06:51:00,
2013-07-02 01:56:00,64.5,57.9,30.17,NNE,21,0.0,0.0,79,0.00,,,0.00,vanprod-2.3,2013-07-02 06:56:00,
2013-07-02 02:01:00,64.5,58.2,30.17,NNE,21,0.0,0.0,80,0.00,,,0.00,vanprod-2.3,2013-07-02 07:01:00,
2013-07-02 02:06:00,64.3,58.0,30.17,NNE,21,0.0,0.0,80,0.00,,,0.00,vanprod-2.3,2013-07-02 07:06:00,
2013-07-02 02:11:00,64.2,57.9,30.17,NNE,21,0.0,0.0,80,0.00,,,0.00,vanprod-2.3,2013-07-02 07:11:00,
2013-07-02 02:16:00,64.2,58.3,30.17,NNE,21,0.0,0.0,81,0.00,,,0.00,vanprod-2.3,2013-07-02 07:16:00,
2013-07-02 02:21:00,64.0,58.1,30.17,NNE,21,0.0,0.0,81,0.00,,,0.00,vanprod-2.3,2013-07-02 07:21:00,
2013-07-02 02:26:00,63.8,58.2,30.17,NNE,21,0.0,0.0,82,0.00,,,0.00,vanprod-2.3,2013-07-02 07:26:00,
2013-07-02 02:31:00,63.8,58.2,30.17,NNE,21,0.0,0.0,82,0.00,,,0.00,vanprod-2.3,2013-07-02 07:31:00,
2013-07-02 02:36:00,63.7,58.1,30.17,NNE,21,0.0,0.0,82,0.00,,,0.00,vanprod-2.3,2013-07-02 07:36:00,
2013-07-02 02:41:00,63.5,58.3,30.17,NNE,21,0.0,0.0,83,0.00,,,0.00,vanprod-2.3,2013-07-02 07:41:00,
2013-07-02 02:46:00,63.4,58.2,30.17,NNE,21,0.0,0.0,83,0.00,,,0.00,vanprod-2.3,2013-07-02 07:46:00,
2013-07-02 02:51:00,63.2,58.0,30.17,NNE,21,0.0,0.0,83,0.00,,,0.00,vanprod-2.3,2013-07-02 07:51:00,
2013-07-02 02:56:00,63.0,57.8,30.17,NNE,21,0.0,0.0,83,0.00,,,0.00,vanprod-2.3,2013-07-02 07:56:00,
2013-07-02 03:01:00,63.0,58.1,30.17,NNE,21,0.0,0.0,84,0.00,,,0.00,vanprod-2.3,2013-07-02 08:01:00,
2013-07-02 03:06:00,62.9,58.0,30.17,NNE,21,0.0,0.0,84,0.00,,,0.00,vanprod-2.3,2013-07-02 08:06:00,
2013-07-02 03:11:00,62.7,57.8,30.17,NNE,21,0.0,0.0,84,0.00,,,0.00,vanprod-2.3,2013-07-02 08:11:00,
2013-07-02 03:16:00,62.7,58.1,30.17,NNE,21,0.0,0.0,85,0.00,,,0.00,vanprod-2.3,2013-07-02 08:16:00,
2013-07-02 03:21:00,62.6,58.4,30.17,NNE,21,0.0,0.0,86,0.00,,,0.00,vanprod-2.3,2013-07-02 08:21:00,
2013-07-02 03:26:00,62.6,58.4,30.17,NNE,21,0.0,0.0,86,0.00,,,0.00,vanprod-2.3,2013-07-02 08:26:00,
2013-07-02 03:31:00,62.4,58.5,30.17,NNE,21,0.0,0.0,87,0.00,,,0.00,vanprod-2.3,2013-07-02 08:31:00,
2013-07-02 03:36:00,62.6,59.0,30.17,NNE,21,0.0,0.0,88,0.00,,,0.00,vanprod-2.3,2013-07-02 08:36:00,
2013-07-02 03:41:00,62.7,59.7,30.17,NNE,21,0.0,0.0,90,0.00,,,0.00,vanprod-2.3,2013-07-02 08:41:00,
2013-07-02 03:46:00,62.7,59.7,30.17,NNE,21,0.0,0.0,90,0.00,,,0.00,vanprod-2.3,2013-07-02 08:46:00,
2013-07-02 03:51:00,62.7,59.7,30.17,NNE,21,0.0,0.0,90,0.00,,,0.00,vanprod-2.3,2013-07-02 08:51:00,
2013-07-02 03:56:00,62.7,59.7,30.17,NNE,21,0.0,0.0,90,0.00,,,0.00,vanprod-2.3,2013-07-02 08:56:00,
2013-07-02 04:01:00,62.7,59.7,30.17,NNE,21,0.0,0.0,90,0.00,,,0.00,vanprod-2.3,2013-07-02 09:01:00,
2013-07-02 04:06:00,62.6,59.6,30.17,NNE,21,0.0,0.0,90,0.00,,,0.00,vanprod-2.3,2013-07-02 09:06:00,
2013-07-02 04:11:00,62.6,59.3,30.17,NNE,21,0.0,0.0,89,0.00,,,0.00,vanprod-2.3,2013-07-02 09:11:00,
2013-07-02 04:16:00,62.4,59.4,30.17,NNE,21,0.0,0.0,90,0.00,,,0.00,vanprod-2.3,2013-07-02 09:16:00,
2013-07-02 04:21:00,62.4,59.4,30.17,NNE,21,0.0,0.0,90,0.00,,,0.00,vanprod-2.3,2013-07-02 09:21:00,
2013-07-02 04:26:00,62.2,59.2,30.17,NNE,21,0.0,0.0,90,0.00,,,0.00,vanprod-2.3,2013-07-02 09:26:00,
2013-07-02 04:31:00,62.1,59.1,30.17,NNE,21,0.0,0.0,90,0.00,,,0.00,vanprod-2.3,2013-07-02 09:31:00,
2013-07-02 04:36:00,61.9,58.9,30.17,NNE,21,0.0,0.0,90,0.00,,,0.00,vanprod-2.3,2013-07-02 09:36:00,
2013-07-02 04:41:00,61.9,58.9,30.17,NNE,21,0.0,0.0,90,0.00,,,0.00,vanprod-2.3,2013-07-02 09:41:00,
2013-07-02 04:46:00,61.8,58.8,30.17,NNE,21,0.0,0.0,90,0.00,,,0.00,vanprod-2.3,2013-07-02 09:46:00,
2013-07-02 04:51:00,61.6,58.6,30.17,NNE,21,0.0,0.0,90,0.00,,,0.00,vanprod-2.3,2013-07-02 09:51:00,
2013-07-02 04:56:00,61.6,58.6,30.17,NNE,21,0.0,0.0,90,0.00,,,0.00,vanprod-2.3,2013-07-02 09:56:00,
2013-07-02 05:01:00,61.5,58.5,30.17,NNE,21,0.0,0.0,90,0.00,,,0.00,vanprod-2.3,2013-07-02 10:01:00,
2013-07-02 05:06:00,61.3,58.3,30.17,NNE,21,0.0,0.0,90,0.00,,,0.00,vanprod-2.3,2013-07-02 10:06:00,
2013-07-02 05:11:00,61.3,58.3,30.17,NNE,21,0.0,0.0,90,0.00,,,0.00,vanprod-2.3,2013-07-02 10:11:00,
2013-07-02 05:16:00,61.1,58.1,30.17,NNE,21,0.0,0.0,90,0.00,,,0.00,vanprod-2.3,2013-07-02 10:16:00,
2013-07-02 05:21:00,61.1,58.1,30.17,NNE,21,0.0,0.0,90,0.00,,,0.00,vanprod-2.3,2013-07-02 10:21:00,
2013-07-02 05:26:00,61.1,58.1,30.17,NNE,21,0.0,0.0,90,0.00,,,0.00,vanprod-2.3,2013-07-02 10:26:00,
2013-07-02 05:31:00,61.1,58.1,30.17,NNE,21,0.0,0.0,90,0.00,,,0.00,vanprod-2.3,2013-07-02 10:31:00,
2013-07-02 05:36:00,61.1,58.1,30.17,NNE,21,0.0,0.0,90,0.00,,,0.00,vanprod-2.3,2013-07-02 10:36:00,
2013-07-02 05:41:00,61.3,58.3,30.17,NNE,21,0.0,0.0,90,0.00,,,0.00,vanprod-2.3,2013-07-02 10:41:00,
2013-07-02 05:46:00,61.3,58.3,30.17,NNE,21,0.0,0.0,90,0.00,,,0.00,vanprod-2.3,2013-07-02 10:46:00,
2013-07-02 05:51:00,61.3,58.3,30.17,NNE,21,0.0,0.0,90,0.00,,,0.00,vanprod-2.3,2013-07-02 10:51:00,
2013-07-02 05:56:00,61.3,58.3,30.17,NNE,21,0.0,0.0,90,0.00,,,0.00,vanprod-2.3,2013-07-02 10:56:00,
2013-07-02 06:01:00,61.3,58.3,30.17,NNE,21,0.0,0.0,90,0.00,,,0.00,vanprod-2.3,2013-07-02 11:01:00,
2013-07-02 06:06:00,61.3,58.3,30.17,NNE,21,0.0,0.0,90,0.00,,,0.00,vanprod-2.3,2013-07-02 11:06:00,
2013-07-02 06:11:00,61.3,58.3,30.17,NNE,21,0.0,0.0,90,0.00,,,0.00,vanprod-2.3,2013-07-02 11:11:00,
2013-07-02 06:16:00,61.1,58.1,30.17,NNE,21,0.0,0.0,90,0.00,,,0.00,vanprod-2.3,2013-07-02 11:16:00,
2013-07-02 06:21:00,61.0,58.1,30.17,NNE,21,0.0,0.0,90,0.00,,,0.00,vanprod-2.3,2013-07-02 11:21:00,
2013-07-02 06:26:00,61.0,58.4,30.17,NNE,21,0.0,0.0,91,0.00,,,0.00,vanprod-2.3,2013-07-02 11:26:00,
2013-07-02 06:31:00,61.1,58.5,30.17,NNE,21,0.0,0.0,91,0.00,,,0.00,vanprod-2.3,2013-07-02 11:31:00,
2013-07-02 06:36:00,61.1,58.1,30.18,NNE,21,0.0,0.0,90,0.00,,,0.00,vanprod-2.3,2013-07-02 11:36:00,
2013-07-02 06:41:00,61.1,58.1,30.18,NNE,21,0.0,0.0,90,0.00,,,0.00,vanprod-2.3,2013-07-02 11:41:00,
2013-07-02 06:46:00,61.3,58.0,30.18,NNE,21,0.0,0.0,89,0.00,,,0.00,vanprod-2.3,2013-07-02 11:46:00,
2013-07-02 06:51:00,61.3,57.7,30.18,NNE,21,0.0,0.0,88,0.00,,,0.00,vanprod-2.3,2013-07-02 11:51:00,
2013-07-02 06:56:00,61.5,57.9,30.18,NNE,21,0.0,0.0,88,0.00,,,0.00,vanprod-2.3,2013-07-02 11:56:00,
2013-07-02 07:01:00,61.5,57.9,30.18,NNE,21,0.0,0.0,88,0.00,,,0.00,vanprod-2.3,2013-07-02 12:01:00,
2013-07-02 07:06:00,61.5,58.2,30.18,NNE,21,0.0,0.0,89,0.00,,,0.00,vanprod-2.3,2013-07-02 12:06:00,
2013-07-02 07:11:00,61.6,58.6,30.18,NNE,21,0.0,0.0,90,0.00,,,0.00,vanprod-2.3,2013-07-02 12:11:00,
2013-07-02 07:16:00,61.6,58.6,30.17,NNE,21,0.0,0.0,90,0.00,,,0.00,vanprod-2.3,2013-07-02 12:16:00,
2013-07-02 07:21:00,61.9,58.9,30.18,NNE,21,0.0,0.0,90,0.00,,,0.00,vanprod-2.3,2013-07-02 12:21:00,
2013-07-02 07:26:00,62.2,59.2,30.18,NNE,21,0.0,0.0,90,0.00,,,0.00,vanprod-2.3,2013-07-02 12:26:00,
2013-07-02 07:31:00,62.4,59.4,30.18,NNE,21,0.0,0.0,90,0.00,,,0.00,vanprod-2.3,2013-07-02 12:31:00,
2013-07-02 07:36:00,62.6,59.3,30.18,NNE,21,0.0,0.0,89,0.00,,,0.00,vanprod-2.3,2013-07-02 12:36:00,
2013-07-02 07:41:00,62.9,59.6,30.18,NNE,21,0.0,0.0,89,0.00,,,0.00,vanprod-2.3,2013-07-02 12:41:00,
2013-07-02 07:46:00,63.0,59.7,30.18,NNE,21,0.0,0.0,89,0.00,,,0.00,vanprod-2.3,2013-07-02 12:46:00,
2013-07-02 07:51:00,63.4,59.8,30.18,NNE,21,0.0,0.0,88,0.00,,,0.00,vanprod-2.3,2013-07-02 12:51:00,
2013-07-02 07:56:00,63.8,59.9,30.18,NNE,21,0.0,0.0,87,0.00,,,0.00,vanprod-2.3,2013-07-02 12:56:00,
2013-07-02 08:01:00,64.7,60.1,30.18,NNE,21,0.0,0.0,85,0.00,,,0.00,vanprod-2.3,2013-07-02 13:01:00,
2013-07-02 08:06:00,65.5,60.2,30.18,NNE,21,0.0,0.0,83,0.00,,,0.00,vanprod-2.3,2013-07-02 13:06:00,
2013-07-02 08:11:00,65.9,59.9,30.18,NNE,21,0.0,0.0,81,0.00,,,0.00,vanprod-2.3,2013-07-02 13:11:00,
2013-07-02 08:16:00,66.4,60.1,30.18,NNE,21,0.0,0.0,80,0.00,,,0.00,vanprod-2.3,2013-07-02 13:16:00,
2013-07-02 08:21:00,66.8,60.1,30.18,NNE,21,0.0,0.0,79,0.00,,,0.00,vanprod-2.3,2013-07-02 13:21:00,
2013-07-02 08:26:00,67.4,59.9,30.18,NNE,21,0.0,0.0,77,0.00,,,0.00,vanprod-2.3,2013-07-02 13:26:00,
2013-07-02 08:31:00,67.9,60.1,30.18,NNE,21,0.0,0.0,76,0.00,,,0.00,vanprod-2.3,2013-07-02 13:31:00,
2013-07-02 08:36:00,68.3,60.5,30.18,NNE,21,0.0,0.0,76,0.00,,,0.00,vanprod-2.3,2013-07-02 13:36:00,
2013-07-02 08:41:00,68.4,59.4,30.18,NNE,21,0.0,0.0,73,0.00,,,0.00,vanprod-2.3,2013-07-02 13:41:00,
2013-07-02 08:46:00,68.9,59.5,30.18,NNE,21,0.0,0.0,72,0.00,,,0.00,vanprod-2.3,2013-07-02 13:46:00,
2013-07-02 08:51:00,69.3,59.5,30.18,NNE,21,0.0,0.0,71,0.00,,,0.00,vanprod-2.3,2013-07-02 13:51:00,
2013-07-02 08:56:00,69.6,60.2,30.18,NNE,21,0.0,0.0,72,0.00,,,0.00,vanprod-2.3,2013-07-02 13:56:00,
2013-07-02 09:01:00,69.8,60.4,30.17,NNE,21,0.0,0.0,72,0.00,,,0.00,vanprod-2.3,2013-07-02 14:01:00,
2013-07-02 09:06:00,70.1,60.7,30.17,NNE,21,0.0,0.0,72,0.00,,,0.00,vanprod-2.3,2013-07-02 14:06:00,
2013-07-02 09:11:00,70.4,59.8,30.17,NNE,21,0.0,0.0,69,0.00,,,0.00,vanprod-2.3,2013-07-02 14:11:00,
2013-07-02 09:16:00,70.8,60.9,30.17,NNE,21,0.0,0.0,71,0.00,,,0.00,vanprod-2.3,2013-07-02 14:16:00,
2013-07-02 09:21:00,71.1,60.8,30.17,NNE,21,0.0,0.0,70,0.00,,,0.00,vanprod-2.3,2013-07-02 14:21:00,
2013-07-02 09:26:00,71.5,60.4,30.17,NNE,21,0.0,0.0,68,0.00,,,0.00,vanprod-2.3,2013-07-02 14:26:00,
2013-07-02 09:31:00,71.6,60.1,30.17,NNE,21,0.0,0.0,67,0.00,,,0.00,vanprod-2.3,2013-07-02 14:31:00,
2013-07-02 09:36:00,72.0,61.3,30.17,NNE,21,0.0,0.0,69,0.00,,,0.00,vanprod-2.3,2013-07-02 14:36:00,
2013-07-02 09:41:00,72.3,62.0,30.17,NNE,21,0.0,1.0,70,0.00,,,0.00,vanprod-2.3,2013-07-02 14:41:00,
2013-07-02 09:46:00,72.5,60.1,30.17,NNE,21,1.0,2.0,65,0.00,,,0.00,vanprod-2.3,2013-07-02 14:46:00,
2013-07-02 09:51:00,72.8,59.5,30.17,NNE,21,0.0,0.0,63,0.00,,,0.00,vanprod-2.3,2013-07-02 14:51:00,
2013-07-02 09:56:00,73.0,59.2,30.17,NNE,21,0.0,0.0,62,0.00,,,0.00,vanprod-2.3,2013-07-02 14:56:00,
2013-07-02 10:01:00,73.4,60.1,30.17,NNE,21,0.0,1.0,63,0.00,,,0.00,vanprod-2.3,2013-07-02 15:01:00,
2013-07-02 10:06:00,73.5,61.5,30.16,NNE,21,0.0,0.0,66,0.00,,,0.00,vanprod-2.3,2013-07-02 15:06:00,
2013-07-02 10:11:00,73.7,62.1,30.16,NNE,21,0.0,0.0,67,0.00,,,0.00,vanprod-2.3,2013-07-02 15:11:00,
2013-07-02 10:16:00,73.9,61.8,30.16,NNE,21,0.0,0.0,66,0.00,,,0.00,vanprod-2.3,2013-07-02 15:16:00,
2013-07-02 10:21:00,74.1,60.7,30.16,NNE,21,0.0,0.0,63,0.00,,,0.00,vanprod-2.3,2013-07-02 15:21:00,
2013-07-02 10:26:00,74.4,61.0,30.16,NNE,21,0.0,0.0,63,0.00,,,0.00,vanprod-2.3,2013-07-02 15:26:00,
2013-07-02 10:31:00,74.8,60.9,30.16,NNE,21,0.0,0.0,62,0.00,,,0.00,vanprod-2.3,2013-07-02 15:31:00,
2013-07-02 10:36:00,75.3,59.5,30.16,NNE,21,0.0,1.0,58,0.00,,,0.00,vanprod-2.3,2013-07-02 15:36:00,
2013-07-02 10:41:00,76.0,59.7,30.16,NNE,21,0.0,1.0,57,0.00,,,0.00,vanprod-2.3,2013-07-02 15:41:00,
2013-07-02 10:46:00,76.2,60.4,30.16,NNE,21,0.0,0.0,58,0.00,,,0.00,vanprod-2.3,2013-07-02 15:46:00,
2013-07-02 10:51:00,76.5,60.2,30.16,NNE,21,0.0,0.0,57,0.00,,,0.00,vanprod-2.3,2013-07-02 15:51:00,
2013-07-02 10:56:00,76.9,59.5,30.16,NNE,21,0.0,0.0,55,0.00,,,0.00,vanprod-2.3,2013-07-02 15:56:00,
2013-07-02 11:01:00,77.1,60.2,30.16,NNE,21,0.0,0.0,56,0.00,,,0.00,vanprod-2.3,2013-07-02 16:01:00,
2013-07-02 11:06:00,77.6,61.2,30.16,NNE,21,0.0,1.0,57,0.00,,,0.00,vanprod-2.3,2013-07-02 16:06:00,
2013-07-02 11:11:00,77.8,58.2,30.16,NNE,21,0.0,1.0,51,0.00,,,0.00,vanprod-2.3,2013-07-02 16:11:00,
2013-07-02 11:16:00,78.1,58.5,30.16,NNE,21,0.0,0.0,51,0.00,,,0.00,vanprod-2.3,2013-07-02 16:16:00,
2013-07-02 11:21:00,78.3,59.2,30.16,NNE,21,0.0,0.0,52,0.00,,,0.00,vanprod-2.3,2013-07-02 16:21:00,
2013-07-02 11:26:00,78.7,60.1,30.16,NNE,21,0.0,0.0,53,0.00,,,0.00,vanprod-2.3,2013-07-02 16:26:00,
2013-07-02 11:31:00,79.3,60.7,30.16,NNE,21,0.0,1.0,53,0.00,,,0.00,vanprod-2.3,2013-07-02 16:31:00,
2013-07-02 11:36:00,79.6,60.4,30.16,NNE,21,0.0,0.0,52,0.00,,,0.00,vanprod-2.3,2013-07-02 16:36:00,
2013-07-02 11:41:00,80.0,59.7,30.16,NNE,21,0.0,0.0,50,0.00,,,0.00,vanprod-2.3,2013-07-02 16:41:00,
2013-07-02 11:46:00,80.0,61.9,30.16,NNE,21,0.0,1.0,54,0.00,,,0.00,vanprod-2.3,2013-07-02 16:46:00,
2013-07-02 11:51:00,80.0,62.4,30.16,NNE,21,0.0,2.0,55,0.00,,,0.00,vanprod-2.3,2013-07-02 16:51:00,
2013-07-02 11:56:00,79.6,59.9,30.16,NNE,21,1.0,3.0,51,0.00,,,0.00,vanprod-2.3,2013-07-02 16:56:00,
2013-07-02 12:01:00,79.3,59.1,30.16,NNE,21,1.0,0.0,50,0.00,,,0.00,vanprod-2.3,2013-07-02 17:01:00,
2013-07-02 12:06:00,78.9,60.3,30.16,NNE,21,0.0,0.0,53,0.00,,,0.00,vanprod-2.3,2013-07-02 17:06:00,
2013-07-02 12:11:00,79.1,61.0,30.15,NNE,21,0.0,0.0,54,0.00,,,0.00,vanprod-2.3,2013-07-02 17:11:00,
2013-07-02 12:16:00,79.4,61.3,30.15,NNE,21,0.0,0.0,54,0.00,,,0.00,vanprod-2.3,2013-07-02 17:16:00,
2013-07-02 12:21:00,79.4,59.2,30.15,NNE,21,0.0,0.0,50,0.00,,,0.00,vanprod-2.3,2013-07-02 17:21:00,
2013-07-02 12:26:00,79.8,61.2,30.15,NNE,21,0.0,1.0,53,0.00,,,0.00,vanprod-2.3,2013-07-02 17:26:00,
2013-07-02 12:31:00,80.0,61.9,30.15,NNE,21,0.0,0.0,54,0.00,,,0.00,vanprod-2.3,2013-07-02 17:31:00,
2013-07-02 12:36:00,80.0,61.9,30.15,NNE,21,0.0,1.0,54,0.00,,,0.00,vanprod-2.3,2013-07-02 17:36:00,
2013-07-02 12:41:00,80.4,62.2,30.15,NNE,21,0.0,0.0,54,0.00,,,0.00,vanprod-2.3,2013-07-02 17:41:00,
2013-07-02 12:46:00,81.3,60.3,30.15,NNE,21,0.0,0.0,49,0.00,,,0.00,vanprod-2.3,2013-07-02 17:46:00,
2013-07-02 12:51:00,81.9,62.0,30.15,NNE,21,1.0,0.0,51,0.00,,,0.00,vanprod-2.3,2013-07-02 17:51:00,
2013-07-02 12:56:00,81.9,62.6,30.15,NNE,21,0.0,0.0,52,0.00,,,0.00,vanprod-2.3,2013-07-02 17:56:00,
2013-07-02 13:01:00,81.9,61.5,30.15,NNE,21,0.0,0.0,50,0.00,,,0.00,vanprod-2.3,2013-07-02 18:01:00,
2013-07-02 13:06:00,82.5,60.9,30.15,NNE,21,0.0,0.0,48,0.00,,,0.00,vanprod-2.3,2013-07-02 18:06:00,
2013-07-02 13:11:00,82.7,58.6,30.14,NNE,21,1.0,2.0,44,0.00,,,0.00,vanprod-2.3,2013-07-02 18:11:00,
2013-07-02 13:16:00,82.3,58.2,30.14,NNE,21,1.0,0.0,44,0.00,,,0.00,vanprod-2.3,2013-07-02 18:16:00,
2013-07-02 13:21:00,82.7,59.8,30.14,NNE,21,0.0,0.0,46,0.00,,,0.00,vanprod-2.3,2013-07-02 18:21:00,
2013-07-02 13:26:00,83.1,59.6,30.14,NNE,21,0.0,0.0,45,0.00,,,0.00,vanprod-2.3,2013-07-02 18:26:00,
2013-07-02 13:31:00,84.0,59.8,30.14,NNE,21,1.0,1.0,44,0.00,,,0.00,vanprod-2.3,2013-07-02 18:31:00,
2013-07-02 13:36:00,84.0,56.4,30.14,NNE,21,2.0,3.0,39,0.00,,,0.00,vanprod-2.3,2013-07-02 18:36:00,
2013-07-02 13:41:00,84.0,58.5,30.14,NNE,21,0.0,0.0,42,0.00,,,0.00,vanprod-2.3,2013-07-02 18:41:00,
2013-07-02 13:46:00,84.4,58.2,30.14,NNE,21,1.0,1.0,41,0.00,,,0.00,vanprod-2.3,2013-07-02 18:46:00,
2013-07-02 13:51:00,84.6,60.3,30.14,NNE,21,0.0,0.0,44,0.00,,,0.00,vanprod-2.3,2013-07-02 18:51:00,
2013-07-02 13:56:00,84.4,57.5,30.14,NNE,21,1.0,0.0,40,0.00,,,0.00,vanprod-2.3,2013-07-02 18:56:00,
2013-07-02 14:01:00,83.8,56.9,30.14,NNE,21,2.0,5.0,40,0.00,,,0.00,vanprod-2.3,2013-07-02 19:01:00,
2013-07-02 14:06:00,83.5,58.0,30.13,NNE,21,0.0,0.0,42,0.00,,,0.00,vanprod-2.3,2013-07-02 19:06:00,
2013-07-02 14:11:00,83.6,58.1,30.13,NNE,21,1.0,1.0,42,0.00,,,0.00,vanprod-2.3,2013-07-02 19:11:00,
2013-07-02 14:16:00,83.5,55.2,30.13,NNE,21,0.0,0.0,38,0.00,,,0.00,vanprod-2.3,2013-07-02 19:16:00,
2013-07-02 14:21:00,84.0,58.5,30.13,NNE,21,0.0,1.0,42,0.00,,,0.00,vanprod-2.3,2013-07-02 19:21:00,
2013-07-02 14:26:00,84.2,54.4,30.12,NNE,21,2.0,2.0,36,0.00,,,0.00,vanprod-2.3,2013-07-02 19:26:00,
2013-07-02 14:31:00,84.2,54.4,30.12,NNE,21,0.0,0.0,36,0.00,,,0.00,vanprod-2.3,2013-07-02 19:31:00,
2013-07-02 14:36:00,84.4,51.3,30.12,NNE,21,0.0,0.0,32,0.00,,,0.00,vanprod-2.3,2013-07-02 19:36:00,
2013-07-02 14:41:00,84.6,53.2,30.12,NNE,21,0.0,0.0,34,0.00,,,0.00,vanprod-2.3,2013-07-02 19:41:00,
2013-07-02 14:46:00,84.8,55.7,30.12,NNE,21,0.0,1.0,37,0.00,,,0.00,vanprod-2.3,2013-07-02 19:46:00,
2013-07-02 14:51:00,85.4,53.9,30.12,NNE,21,0.0,0.0,34,0.00,,,0.00,vanprod-2.3,2013-07-02 19:51:00,
2013-07-02 14:56:00,86.2,55.4,30.12,NNE,21,0.0,1.0,35,0.00,,,0.00,vanprod-2.3,2013-07-02 19:56:00,
2013-07-02 15:01:00,86.7,57.3,30.12,NNE,21,0.0,0.0,37,0.00,,,0.00,vanprod-2.3,2013-07-02 20:01:00,
2013-07-02 15:06:00,86.9,54.4,30.12,NNE,21,0.0,0.0,33,0.00,,,0.00,vanprod-2.3,2013-07-02 20:06:00,
2013-07-02 15:11:00,86.7,52.5,30.11,NNE,21,1.0,4.0,31,0.00,,,0.00,vanprod-2.3,2013-07-02 20:11:00,
2013-07-02 15:16:00,86.5,52.3,30.11,NNE,21,0.0,0.0,31,0.00,,,0.00,vanprod-2.3,2013-07-02 20:16:00,
2013-07-02 15:21:00,87.1,54.5,30.11,NNE,21,0.0,0.0,33,0.00,,,0.00,vanprod-2.3,2013-07-02 20:21:00,
2013-07-02 15:26:00,87.3,57.1,30.11,NNE,21,0.0,0.0,36,0.00,,,0.00,vanprod-2.3,2013-07-02 20:26:00,
2013-07-02 15:31:00,87.5,54.0,30.11,NNE,21,0.0,2.0,32,0.00,,,0.00,vanprod-2.3,2013-07-02 20:31:00,
2013-07-02 15:36:00,86.5,51.4,30.11,NNE,21,3.0,3.0,30,0.00,,,0.00,vanprod-2.3,2013-07-02 20:36:00,
2013-07-02 15:41:00,86.0,52.7,30.10,NNE,21,0.0,0.0,32,0.00,,,0.00,vanprod-2.3,2013-07-02 20:41:00,
2013-07-02 15:46:00,86.9,52.7,30.10,NNE,21,0.0,0.0,31,0.00,,,0.00,vanprod-2.3,2013-07-02 20:46:00,
2013-07-02 15:51:00,87.1,56.2,30.10,NNE,21,2.0,5.0,35,0.00,,,0.00,vanprod-2.3,2013-07-02 20:51:00,
2013-07-02 15:56:00,86.0,55.2,30.10,NNE,21,0.0,1.0,35,0.00,,,0.00,vanprod-2.3,2013-07-02 20:56:00,
2013-07-02 16:01:00,86.0,52.7,30.10,NNE,21,0.0,0.0,32,0.00,,,0.00,vanprod-2.3,2013-07-02 21:01:00,
2013-07-02 16:06:00,86.5,53.2,30.10,NNE,21,0.0,0.0,32,0.00,,,0.00,vanprod-2.3,2013-07-02 21:06:00,
2013-07-02 16:11:00,86.2,52.9,30.10,NNE,21,0.0,0.0,32,0.00,,,0.00,vanprod-2.3,2013-07-02 21:11:00,
2013-07-02 16:16:00,86.2,53.8,30.10,NNE,21,0.0,0.0,33,0.00,,,0.00,vanprod-2.3,2013-07-02 21:16:00,
2013-07-02 16:21:00,85.6,54.8,30.09,NNE,21,0.0,0.0,35,0.00,,,0.00,vanprod-2.3,2013-07-02 21:21:00,
2013-07-02 16:26:00,85.2,53.7,30.09,NNE,21,0.0,0.0,34,0.00,,,0.00,vanprod-2.3,2013-07-02 21:26:00,
2013-07-02 16:31:00,85.2,54.5,30.09,NNE,21,0.0,0.0,35,0.00,,,0.00,vanprod-2.3,2013-07-02 21:31:00,
2013-07-02 16:36:00,84.6,54.0,30.09,NNE,21,0.0,0.0,35,0.00,,,0.00,vanprod-2.3,2013-07-02 21:36:00,
2013-07-02 16:41:00,84.2,55.1,30.09,NNE,21,1.0,2.0,37,0.00,,,0.00,vanprod-2.3,2013-07-02 21:41:00,
2013-07-02 16:46:00,83.8,53.3,30.09,NNE,21,0.0,0.0,35,0.00,,,0.00,vanprod-2.3,2013-07-02 21:46:00,
2013-07-02 16:51:00,83.6,53.1,30.09,NNE,21,0.0,0.0,35,0.00,,,0.00,vanprod-2.3,2013-07-02 21:51:00,
2013-07-02 16:56:00,83.6,54.6,30.09,NNE,21,0.0,0.0,37,0.00,,,0.00,vanprod-2.3,2013-07-02 21:56:00,
2013-07-02 17:01:00,83.5,55.2,30.09,NNE,21,0.0,0.0,38,0.00,,,0.00,vanprod-2.3,2013-07-02 22:01:00,
2013-07-02 17:06:00,83.6,55.3,30.09,NNE,21,0.0,1.0,38,0.00,,,0.00,vanprod-2.3,2013-07-02 22:06:00,
2013-07-02 17:11:00,83.6,53.9,30.08,NNE,21,0.0,1.0,36,0.00,,,0.00,vanprod-2.3,2013-07-02 22:11:00,
2013-07-02 17:16:00,83.5,56.0,30.08,NNE,21,1.0,0.0,39,0.00,,,0.00,vanprod-2.3,2013-07-02 22:16:00,
2013-07-02 17:21:00,83.1,57.0,30.08,NNE,21,0.0,0.0,41,0.00,,,0.00,vanprod-2.3,2013-07-02 22:21:00,
2013-07-02 17:26:00,83.1,55.6,30.08,NNE,21,0.0,0.0,39,0.00,,,0.00,vanprod-2.3,2013-07-02 22:26:00,
2013-07-02 17:31:00,83.3,57.8,30.08,NNE,21,0.0,0.0,42,0.00,,,0.00,vanprod-2.3,2013-07-02 22:31:00,
2013-07-02 17:36:00,83.6,59.4,30.08,NNE,21,0.0,0.0,44,0.00,,,0.00,vanprod-2.3,2013-07-02 22:36:00,
2013-07-02 17:41:00,84.2,55.9,30.08,NNE,21,0.0,0.0,38,0.00,,,0.00,vanprod-2.3,2013-07-02 22:41:00,
2013-07-02 17:46:00,84.0,55.7,30.07,NNE,21,0.0,0.0,38,0.00,,,0.00,vanprod-2.3,2013-07-02 22:46:00,
2013-07-02 17:51:00,83.8,56.2,30.07,NNE,21,0.0,0.0,39,0.00,,,0.00,vanprod-2.3,2013-07-02 22:51:00,
2013-07-02 17:56:00,83.5,54.5,30.07,NNE,21,0.0,1.0,37,0.00,,,0.00,vanprod-2.3,2013-07-02 22:56:00,
2013-07-02 18:01:00,83.6,53.9,30.07,NNE,21,0.0,2.0,36,0.00,,,0.00,vanprod-2.3,2013-07-02 23:01:00,
2013-07-02 18:06:00,83.3,54.3,30.07,NNE,21,3.0,4.0,37,0.00,,,0.00,vanprod-2.3,2013-07-02 23:06:00,
2013-07-02 18:11:00,82.1,56.1,30.08,NNE,21,2.0,10.0,41,0.00,,,0.00,vanprod-2.3,2013-07-02 23:11:00,
2013-07-02 18:16:00,80.6,55.4,30.08,NE,36,5.0,5.0,42,0.00,,,0.00,vanprod-2.3,2013-07-02 23:16:00,
2013-07-02 18:21:00,79.8,54.7,30.08,NE,40,3.0,6.0,42,0.00,,,0.00,vanprod-2.3,2013-07-02 23:21:00,
2013-07-02 18:26:00,79.4,54.3,30.08,NE,40,3.0,3.0,42,0.00,,,0.00,vanprod-2.3,2013-07-02 23:26:00,
2013-07-02 18:29:00,79.3,54.9,30.08,NE,40,3.0,4.0,43,0.00,,,0.00,vanprod-2.3,2013-07-02 23:29:00,
2013-07-02 18:34:00,79.3,54.9,30.08,NE,40,0.0,0.0,43,0.00,,,0.00,vanprod-2.3,2013-07-02 23:34:00,
2013-07-02 18:39:00,79.3,56.1,30.08,NE,40,0.0,0.0,45,0.00,,,0.00,vanprod-2.3,2013-07-02 23:39:00,
2013-07-02 18:44:00,79.3,56.7,30.08,NE,40,0.0,0.0,46,0.00,,,0.00,vanprod-2.3,2013-07-02 23:44:00,
2013-07-02 18:49:00,79.1,55.3,30.07,NE,40,0.0,0.0,44,0.00,,,0.00,vanprod-2.3,2013-07-02 23:49:00,
2013-07-02 18:54:00,78.9,55.2,30.07,NE,40,0.0,0.0,44,0.00,,,0.00,vanprod-2.3,2013-07-02 23:54:00,
2013-07-02 18:59:00,79.1,56.0,30.07,NE,40,0.0,0.0,45,0.00,,,0.00,vanprod-2.3,2013-07-02 23:59:00,
2013-07-02 19:01:00,78.9,55.8,30.07,NE,40,0.0,0.0,45,0.00,,,0.00,vanprod-2.3,2013-07-03 00:01:00,
2013-07-02 19:06:00,78.9,56.4,30.07,NE,40,0.0,0.0,46,0.00,,,0.00,vanprod-2.3,2013-07-03 00:06:00,
2013-07-02 19:11:00,78.9,57.6,30.07,NE,40,0.0,0.0,48,0.00,,,0.00,vanprod-2.3,2013-07-03 00:11:00,
2013-07-02 19:16:00,78.7,58.0,30.07,NE,40,0.0,0.0,49,0.00,,,0.00,vanprod-2.3,2013-07-03 00:16:00,
2013-07-02 19:21:00,78.9,58.1,30.07,NE,40,0.0,0.0,49,0.00,,,0.00,vanprod-2.3,2013-07-03 00:21:00,
2013-07-02 19:23:00,78.9,58.7,30.07,NE,40,0.0,0.0,50,0.00,,,0.00,vanprod-2.3,2013-07-03 00:23:00,
2013-07-02 19:24:00,79.1,59.4,30.07,NE,40,0.0,0.0,51,0.00,,,0.00,vanprod-2.3,2013-07-03 00:24:00,
2013-07-02 19:28:00,79.1,58.9,30.07,NE,40,0.0,0.0,50,0.00,,,0.00,vanprod-2.3,2013-07-03 00:28:00,
2013-07-02 19:33:00,79.1,58.9,30.07,NE,40,0.0,0.0,50,0.00,,,0.00,vanprod-2.3,2013-07-03 00:33:00,
2013-07-02 19:38:00,79.4,59.7,30.07,NE,40,0.0,0.0,51,0.00,,,0.00,vanprod-2.3,2013-07-03 00:38:00,
2013-07-02 19:43:00,79.6,61.0,30.07,NE,40,0.0,0.0,53,0.00,,,0.00,vanprod-2.3,2013-07-03 00:43:00,
2013-07-02 19:48:00,79.8,61.2,30.07,NE,40,0.0,0.0,53,0.00,,,0.00,vanprod-2.3,2013-07-03 00:48:00,
2013-07-02 19:53:00,79.6,61.5,30.07,NE,40,0.0,0.0,54,0.00,,,0.00,vanprod-2.3,2013-07-03 00:53:00,
2013-07-02 19:58:00,79.4,61.3,30.07,NE,40,0.0,0.0,54,0.00,,,0.00,vanprod-2.3,2013-07-03 00:58:00,
2013-07-02 20:00:00,79.4,60.8,30.07,NE,40,0.0,0.0,53,0.00,,,0.00,vanprod-2.3,2013-07-03 01:00:00,
2013-07-02 20:03:00,79.4,60.8,30.07,NE,40,0.0,0.0,53,0.00,,,0.00,vanprod-2.3,2013-07-03 01:03:00,
2013-07-02 20:08:00,79.3,61.2,30.07,NE,40,0.0,0.0,54,0.00,,,0.00,vanprod-2.3,2013-07-03 01:08:00,
2013-07-02 20:09:00,79.1,61.0,30.07,NE,40,0.0,0.0,54,0.00,,,0.00,vanprod-2.3,2013-07-03 01:09:00,
2013-07-02 20:14:00,79.1,60.5,30.07,NE,40,0.0,0.0,53,0.00,,,0.00,vanprod-2.3,2013-07-03 01:14:00,
2013-07-02 20:19:00,79.1,61.0,30.07,NE,40,0.0,0.0,54,0.00,,,0.00,vanprod-2.3,2013-07-03 01:19:00,
2013-07-02 20:24:00,78.7,60.7,30.07,NE,40,0.0,0.0,54,0.00,,,0.00,vanprod-2.3,2013-07-03 01:24:00,
2013-07-02 20:26:00,78.7,60.7,30.07,NE,40,0.0,0.0,54,0.00,,,0.00,vanprod-2.3,2013-07-03 01:26:00,
2013-07-02 20:31:00,78.7,61.2,30.07,NE,40,0.0,0.0,55,0.00,,,0.00,vanprod-2.3,2013-07-03 01:31:00,
2013-07-02 20:36:00,78.3,60.3,30.07,NE,40,0.0,0.0,54,0.00,,,0.00,vanprod-2.3,2013-07-03 01:36:00,
2013-07-02 20:41:00,78.0,61.5,30.07,NE,40,0.0,0.0,57,0.00,,,0.00,vanprod-2.3,2013-07-03 01:41:00,
2013-07-02 20:46:00,77.8,62.3,30.07,NE,40,0.0,0.0,59,0.00,,,0.00,vanprod-2.3,2013-07-03 01:46:00,
2013-07-02 20:49:00,77.4,61.0,30.07,NE,40,0.0,0.0,57,0.00,,,0.00,vanprod-2.3,2013-07-03 01:49:00,
2013-07-02 20:50:00,77.2,61.3,30.07,NE,40,0.0,0.0,58,0.00,,,0.00,vanprod-2.3,2013-07-03 01:50:00,
2013-07-02 20:55:00,76.5,61.1,30.07,NE,40,0.0,0.0,59,0.00,,,0.00,vanprod-2.3,2013-07-03 01:55:00,
2013-07-02 21:00:00,76.2,62.7,30.07,NE,40,0.0,0.0,63,0.00,,,0.00,vanprod-2.3,2013-07-03 02:00:00,
2013-07-02 21:05:00,75.6,63.0,30.07,NE,40,0.0,0.0,65,0.00,,,0.00,vanprod-2.3,2013-07-03 02:05:00,
2013-07-02 21:10:00,74.9,62.8,30.07,NE,40,0.0,0.0,66,0.00,,,0.00,vanprod-2.3,2013-07-03 02:10:00,
2013-07-02 21:15:00,74.4,61.9,30.07,NE,40,0.0,0.0,65,0.00,,,0.00,vanprod-2.3,2013-07-03 02:15:00,
2013-07-02 21:20:00,73.9,61.4,30.07,NE,40,0.0,0.0,65,0.00,,,0.00,vanprod-2.3,2013-07-03 02:20:00,
2013-07-02 21:25:00,73.7,61.2,30.07,NE,40,0.0,0.0,65,0.00,,,0.00,vanprod-2.3,2013-07-03 02:25:00,
2013-07-02 21:30:00,73.2,61.6,30.07,NE,40,0.0,0.0,67,0.00,,,0.00,vanprod-2.3,2013-07-03 02:30:00,
2013-07-02 21:32:00,73.2,61.6,30.07,NE,40,0.0,0.0,67,0.00,,,0.00,vanprod-2.3,2013-07-03 02:32:00,
2013-07-02 21:37:00,72.8,61.2,30.08,NE,40,0.0,0.0,67,0.00,,,0.00,vanprod-2.3,2013-07-03 02:37:00,
2013-07-02 21:42:00,72.5,61.3,30.08,NE,40,0.0,0.0,68,0.00,,,0.00,vanprod-2.3,2013-07-03 02:42:00,
2013-07-02 21:46:00,72.3,61.2,30.08,NE,40,0.0,0.0,68,0.00,,,0.00,vanprod-2.3,2013-07-03 02:46:00,
2013-07-02 21:51:00,72.0,61.3,30.08,NE,40,0.0,0.0,69,0.00,,,0.00,vanprod-2.3,2013-07-03 02:51:00,
2013-07-02 21:56:00,71.8,61.1,30.08,NE,40,0.0,0.0,69,0.00,,,0.00,vanprod-2.3,2013-07-03 02:56:00,
2013-07-02 22:01:00,71.5,61.2,30.08,NE,40,0.0,0.0,70,0.00,,,0.00,vanprod-2.3,2013-07-03 03:01:00,
2013-07-02 22:02:00,71.5,61.2,30.08,NE,40,0.0,0.0,70,0.00,,,0.00,vanprod-2.3,2013-07-03 03:02:00,
2013-07-02 22:07:00,71.1,61.2,30.08,NE,40,0.0,0.0,71,0.00,,,0.00,vanprod-2.3,2013-07-03 03:07:00,
2013-07-02 22:12:00,70.8,60.9,30.08,NE,40,0.0,0.0,71,0.00,,,0.00,vanprod-2.3,2013-07-03 03:12:00,
2013-07-02 22:17:00,70.6,61.1,30.08,NE,40,0.0,0.0,72,0.00,,,0.00,vanprod-2.3,2013-07-03 03:17:00,
2013-07-02 22:20:00,70.4,61.0,30.08,NE,40,0.0,0.0,72,0.00,,,0.00,vanprod-2.3,2013-07-03 03:20:00,
2013-07-02 22:25:00,70.1,61.4,30.08,NE,40,0.0,0.0,74,0.00,,,0.00,vanprod-2.3,2013-07-03 03:25:00,
2013-07-02 22:30:00,69.9,61.2,30.08,NE,40,0.0,0.0,74,0.00,,,0.00,vanprod-2.3,2013-07-03 03:30:00,
2013-07-02 22:35:00,69.8,61.5,30.08,NE,40,0.0,0.0,75,0.00,,,0.00,vanprod-2.3,2013-07-03 03:35:00,
2013-07-02 22:39:00,69.8,61.9,30.08,NE,40,0.0,0.0,76,0.00,,,0.00,vanprod-2.3,2013-07-03 03:39:00,
2013-07-02 22:44:00,69.6,62.1,30.08,NE,40,0.0,0.0,77,0.00,,,0.00,vanprod-2.3,2013-07-03 03:44:00,
2013-07-02 22:49:00,69.4,61.9,30.08,NE,40,0.0,0.0,77,0.00,,,0.00,vanprod-2.3,2013-07-03 03:49:00,
2013-07-02 22:54:00,69.3,62.2,30.08,NE,40,0.0,0.0,78,0.00,,,0.00,vanprod-2.3,2013-07-03 03:54:00,
2013-07-02 22:59:00,69.1,61.6,30.08,NE,40,0.0,0.0,77,0.00,,,0.00,vanprod-2.3,2013-07-03 03:59:00,
2013-07-02 23:00:00,68.9,61.4,30.08,NE,40,0.0,0.0,77,0.00,,,0.00,vanprod-2.3,2013-07-03 04:00:00,
2013-07-02 23:01:00,68.9,61.4,30.08,NE,40,0.0,0.0,77,0.00,,,0.00,vanprod-2.3,2013-07-03 04:01:00,
2013-07-02 23:03:00,68.9,61.8,30.08,NE,40,0.0,0.0,78,0.00,,,0.00,vanprod-2.3,2013-07-03 04:03:00,
2013-07-02 23:04:00,68.9,61.8,30.08,NE,40,0.0,0.0,78,0.00,,,0.00,vanprod-2.3,2013-07-03 04:04:00,
2013-07-02 23:09:00,68.6,61.1,30.07,NE,40,0.0,0.0,77,0.00,,,0.00,vanprod-2.3,2013-07-03 04:09:00,
2013-07-02 23:14:00,68.6,60.7,30.07,NE,40,0.0,0.0,76,0.00,,,0.00,vanprod-2.3,2013-07-03 04:14:00,
2013-07-02 23:19:00,68.4,59.8,30.07,NE,40,0.0,0.0,74,0.00,,,0.00,vanprod-2.3,2013-07-03 04:19:00,
2013-07-02 23:24:00,68.3,60.1,30.08,NE,40,0.0,0.0,75,0.00,,,0.00,vanprod-2.3,2013-07-03 04:24:00,
2013-07-02 23:29:00,68.3,60.1,30.08,NE,40,0.0,0.0,75,0.00,,,0.00,vanprod-2.3,2013-07-03 04:29:00,
2013-07-02 23:31:00,68.3,60.1,30.08,NE,40,0.0,0.0,75,0.00,,,0.00,vanprod-2.3,2013-07-03 04:31:00,
2013-07-02 23:32:00,68.1,59.9,30.08,NE,40,0.0,0.0,75,0.00,,,0.00,vanprod-2.3,2013-07-03 04:32:00,
2013-07-02 23:37:00,68.1,59.5,30.08,NE,40,0.0,0.0,74,0.00,,,0.00,vanprod-2.3,2013-07-03 04:37:00,
2013-07-02 23:42:00,67.9,59.3,30.08,NE,40,0.0,0.0,74,0.00,,,0.00,vanprod-2.3,2013-07-03 04:42:00,
2013-07-02 23:45:00,67.9,59.3,30.08,NE,40,0.0,0.0,74,0.00,,,0.00,vanprod-2.3,2013-07-03 04:45:00,
2013-07-02 23:46:00,67.9,59.3,30.08,NE,40,0.0,0.0,74,0.00,,,0.00,vanprod-2.3,2013-07-03 04:46:00,
2013-07-02 23:51:00,67.8,59.2,30.08,NE,40,0.0,0.0,74,0.00,,,0.00,vanprod-2.3,2013-07-03 04:51:00,
2013-07-02 23:53:00,67.8,59.6,30.08,NE,40,0.0,0.0,75,0.00,,,0.00,vanprod-2.3,2013-07-03 04:53:00,
2013-07-02 23:58:00,67.6,59.0,30.08,NE,40,0.0,0.0,74,0.00,,,0.00,vanprod-2.3,2013-07-03 04:58:00,